Home > Weather > Fayetteville > Past weeks

Flag for U.S.A. Weather for the Past 2 Weeks in Fayetteville, North Carolina, U.S.A.

Now
30 °F

Clear.


Feels Like: 25 °F
Forecast: 28 / 38 °F
Wind: 5 mph from Northeast

Location: Fayetteville Regional Airport

Current Time: Feb 12, 2016 at 7:41:05 AM

Latest Report: Feb 12, 2016 at 6:53 AM


Visibility: 10 mi

Pressure: 30.25 "Hg

Humidity: 41%

Dew point: 9 °F

Location of FayettevilleLocation

Historic Weather in Fayetteville — Graph

°F

Fayetteville Temperature Yesterday

Maximum temperature yesterday: 46 °F (at 3:53 PM)
Minimum temperature yesterday: 20 °F (at 6:53 AM)
Average temperature yesterday: 32 °F

High & Low Weather Summary for the Past Weeks

 TemperatureHumidityPressure
High74 °F (Feb 1, 2:53 PM)100% (Feb 3, 6:53 AM)30.44 "Hg (Feb 3, 6:53 AM)
Low20 °F (Feb 11, 6:53 AM)26% (Jan 30, 12:53 PM)29.60 "Hg (Feb 9, 2:53 AM)
Average46 °F66%30.01 "Hg
* Reported Jan 28 5:53 AM — Feb 12 5:53 AM, Fayetteville, Weather by CustomWeather, © 2016

Note: Actual official high and low records may vary slightly from our data, if they occured in-between our weather recording intervals... More about our weather records

Advertising

Fayetteville Weather History for the Previous 24 Hours

 ConditionsComfort  
Time TempWeatherWind HumidityBarometerVisibility
5:53 AM
Fri, Feb 12
29 °FClear.7 mph45%30.23 "Hg10 mi
4:53 AM28 °FClear.8 mph45%30.24 "Hg10 mi
3:53 AM28 °FClear.8 mph49%30.24 "Hg10 mi
2:53 AM29 °FClear.9 mph54%30.26 "Hg10 mi
1:53 AM26 °FClear.7 mph74%30.27 "Hg10 mi
12:53 AM29 °FClear.5 mph66%30.26 "Hg10 mi
11:53 PM
Thu, Feb 11
28 °FClear.7 mph72%30.26 "Hg10 mi
10:53 PM30 °FClear.No wind64%30.26 "Hg10 mi
9:53 PM29 °FClear.5 mph72%30.25 "Hg10 mi
8:53 PM31 °FClear.No wind67%30.25 "Hg10 mi
7:53 PM33 °FClear.6 mph56%30.23 "Hg10 mi
6:53 PM40 °FClear.No wind38%30.21 "Hg10 mi
5:53 PM43 °FSunny.5 mph34%30.18 "Hg10 mi
4:53 PM45 °FSunny.8 mph28%30.15 "Hg10 mi
3:53 PM46 °FSunny.14 mph29%30.13 "Hg10 mi
2:53 PM45 °FSunny.15 mph27%30.13 "Hg10 mi
1:53 PM43 °FSunny.12 mph28%30.15 "Hg10 mi
12:53 PM40 °FSunny.9 mph29%30.17 "Hg10 mi
11:53 AM37 °FSunny.8 mph28%30.20 "Hg10 mi
10:53 AM35 °FSunny.9 mph31%30.22 "Hg10 mi
9:53 AM32 °FSunny.6 mph33%30.22 "Hg10 mi
8:53 AM29 °FSunny.8 mph39%30.21 "Hg10 mi
7:53 AM25 °FSunny.No wind63%30.19 "Hg10 mi
Weather by CustomWeather, © 2016

See weather overviewHow to use our weather pages